When you browse on this site, cookies collect data to enhance your experience and personalize the content and advertising you see.
Visit our Privacy Policy to learn more. By continuing to use the site, you agree to this use of cookies and data.
  • în România
  • Lista ţărilor
  • Pe 7 zile
  • Temperatura apei
  • Meteo pe hartă
  • Widget-uri
  • user-avatar
    Intrare

    Meteo pe oră la Glasgow

    Astăzi, 23 Octombrie, Miercuri

    Timp Temperatura Precipitaţii Vânt Presiune Umiditate
    00:00 +6°C° 0 mm 7 m/s 757 mmHg 89%
    01:00 +6°C° 0 mm 8 m/s 756 mmHg 89%
    02:00 +6°C° 0 mm 8 m/s 756 mmHg 90%
    03:00 +6°C° 0 mm 8 m/s 755 mmHg 90%
    04:00 +6°C° 0 mm 8 m/s 755 mmHg 89%
    05:00 +7°C° 0 mm 8 m/s 755 mmHg 88%
    06:00 +7°C° 0 mm 8 m/s 755 mmHg 87%
    07:00 +7°C° 0 mm 9 m/s 754 mmHg 86%
    08:00 +8°C° 0 mm 9 m/s 754 mmHg 84%
    09:00 +8°C° 0 mm 9 m/s 754 mmHg 82%
    10:00 +8°C° 0 mm 9 m/s 754 mmHg 79%
    11:00 +9°C° 0 mm 10 m/s 753 mmHg 77%
    12:00 +11°C° 0 mm 10 m/s 753 mmHg 74%
    13:00 +10°C° 0 mm 9 m/s 752 mmHg 74%
    14:00 +10°C° 0 mm 9 m/s 752 mmHg 75%
    15:00 +10°C° 0 mm 9 m/s 751 mmHg 75%
    16:00 +10°C° 0 mm 9 m/s 751 mmHg 76%
    17:00 +8°C° 0 mm 10 m/s 750 mmHg 77%
    18:00 +8°C° 0 mm 10 m/s 749 mmHg 78%
    19:00 +8°C° 0 mm 10 m/s 749 mmHg 78%
    20:00 +8°C° 0 mm 10 m/s 748 mmHg 79%
    21:00 +8°C° 0 mm 10 m/s 748 mmHg 80%
    22:00 +8°C° 0.1 mm 9 m/s 748 mmHg 83%
    23:00 +8°C° 0.1 mm 9 m/s 748 mmHg 86%

    Mâine, 24 Octombrie, Joi

    Timp Temperatura Precipitaţii Vânt Presiune Umiditate
    00:00 +9°C° 0.1 mm 8 m/s 747 mmHg 89%
    01:00 +9°C° 0 mm 8 m/s 747 mmHg 91%
    02:00 +9°C° 0 mm 8 m/s 747 mmHg 92%
    03:00 +7°C° 0 mm 8 m/s 746 mmHg 94%
    04:00 +8°C° 0 mm 7 m/s 746 mmHg 94%
    05:00 +8°C° 0 mm 7 m/s 746 mmHg 94%
    06:00 +8°C° 0 mm 7 m/s 746 mmHg 94%
    07:00 +8°C° 0 mm 7 m/s 746 mmHg 91%
    08:00 +9°C° 0 mm 7 m/s 746 mmHg 88%
    09:00 +9°C° 0 mm 7 m/s 746 mmHg 85%
    10:00 +9°C° 0 mm 8 m/s 746 mmHg 81%
    11:00 +10°C° 0 mm 9 m/s 746 mmHg 77%
    12:00 +10°C° 0 mm 9 m/s 746 mmHg 73%
    13:00 +10°C° 0 mm 9 m/s 745 mmHg 71%
    14:00 +10°C° 0 mm 9 m/s 745 mmHg 70%
    15:00 +9°C° 0 mm 8 m/s 745 mmHg 68%
    16:00 +7°C° 0 mm 8 m/s 745 mmHg 69%
    17:00 +5°C° 0 mm 8 m/s 745 mmHg 69%
    18:00 +2°C° 0 mm 8 m/s 745 mmHg 70%
    19:00 +2°C° 0 mm 9 m/s 745 mmHg 71%
    20:00 +2°C° 0 mm 10 m/s 745 mmHg 73%
    21:00 +2°C° 0 mm 10 m/s 746 mmHg 74%
    22:00 +1°C° 0 mm 10 m/s 746 mmHg 75%
    23:00 +1°C° 0 mm 10 m/s 746 mmHg 75%

    Poimâine, 25 Octombrie, Vineri

    Timp Temperatura Precipitaţii Vânt Presiune Umiditate
    00:00 +1°C° 0 mm 9 m/s 747 mmHg 76%
    01:00 +1°C° 0 mm 9 m/s 747 mmHg 77%
    02:00 +1°C° 0 mm 9 m/s 748 mmHg 77%
    03:00 0°C° 0 mm 9 m/s 748 mmHg 78%
    04:00 0°C° 0 mm 9 m/s 748 mmHg 78%
    05:00 0°C° 0 mm 9 m/s 749 mmHg 78%
    06:00 0°C° 0 mm 9 m/s 749 mmHg 78%
    07:00 0°C° 0 mm 9 m/s 750 mmHg 74%
    08:00 +1°C° 0 mm 10 m/s 750 mmHg 71%
    09:00 +1°C° 0 mm 10 m/s 750 mmHg 67%
    10:00 +2°C° 0 mm 11 m/s 750 mmHg 67%
    11:00 +2°C° 0 mm 11 m/s 750 mmHg 68%
    12:00 +3°C° 0 mm 11 m/s 750 mmHg 68%
    13:00 +3°C° 0 mm 10 m/s 749 mmHg 69%
    14:00 +3°C° 0 mm 9 m/s 749 mmHg 69%
    15:00 +4°C° 0 mm 8 m/s 748 mmHg 70%
    16:00 +3°C° 0 mm 7 m/s 748 mmHg 73%
    17:00 +2°C° 0 mm 6 m/s 748 mmHg 76%
    18:00 +1°C° 0 mm 5 m/s 747 mmHg 79%
    19:00 +1°C° 0 mm 5 m/s 747 mmHg 81%
    20:00 0°C° 0 mm 5 m/s 747 mmHg 83%
    21:00 -2°C° 0 mm 6 m/s 746 mmHg 85%
    22:00 -2°C° 0 mm 6 m/s 746 mmHg 83%
    23:00 -1°C° 0 mm 7 m/s 746 mmHg 82%

    26 Octombrie, Sâmbătă

    Timp Temperatura Precipitaţii Vânt Presiune Umiditate
    00:00 -1°C° 0 mm 7 m/s 746 mmHg 80%
    01:00 -1°C° 0 mm 8 m/s 745 mmHg 75%
    02:00 0°C° 0 mm 9 m/s 745 mmHg 71%
    03:00 0°C° 0 mm 10 m/s 745 mmHg 66%
    04:00 +1°C° 0 mm 11 m/s 745 mmHg 64%
    05:00 +1°C° 0 mm 11 m/s 745 mmHg 63%
    06:00 +1°C° 0 mm 11 m/s 746 mmHg 61%
    07:00 +2°C° 0 mm 12 m/s 746 mmHg 60%
    08:00 +2°C° 0 mm 12 m/s 746 mmHg 59%
    09:00 +3°C° 0 mm 13 m/s 746 mmHg 57%
    10:00 +3°C° 0 mm 13 m/s 747 mmHg 56%
    11:00 +4°C° 0 mm 14 m/s 747 mmHg 55%
    12:00 +5°C° 0 mm 14 m/s 747 mmHg 54%
    13:00 +5°C° 0 mm 14 m/s 746 mmHg 58%
    14:00 +4°C° 0 mm 13 m/s 746 mmHg 61%
    15:00 +4°C° 0 mm 13 m/s 746 mmHg 65%
    16:00 +4°C° 0.2 mm 12 m/s 746 mmHg 70%
    17:00 +4°C° 0.2 mm 11 m/s 747 mmHg 75%
    18:00 +4°C° 0.2 mm 11 m/s 747 mmHg 80%
    19:00 +5°C° 0.1 mm 10 m/s 748 mmHg 81%
    20:00 +5°C° 0.1 mm 10 m/s 750 mmHg 83%
    21:00 +5°C° 0.1 mm 10 m/s 751 mmHg 84%
    22:00 +3°C° 0 mm 10 m/s 752 mmHg 84%
    23:00 +3°C° 0 mm 10 m/s 754 mmHg 84%

    27 Octombrie, Duminică

    Timp Temperatura Precipitaţii Vânt Presiune Umiditate
    00:00 +3°C° 0 mm 10 m/s 755 mmHg 84%
    01:00 +3°C° 0 mm 9 m/s 756 mmHg 84%
    02:00 +2°C° 0 mm 9 m/s 757 mmHg 83%
    03:00 +2°C° 0 mm 9 m/s 758 mmHg 83%
    04:00 +1°C° 0 mm 8 m/s 759 mmHg 84%
    05:00 +1°C° 0 mm 8 m/s 760 mmHg 85%
    06:00 +2°C° 0 mm 7 m/s 760 mmHg 85%
    07:00 +2°C° 0 mm 7 m/s 761 mmHg 84%
    08:00 +3°C° 0 mm 7 m/s 762 mmHg 82%
    09:00 +3°C° 0 mm 7 m/s 763 mmHg 81%
    10:00 +4°C° 0 mm 7 m/s 763 mmHg 75%
    11:00 +5°C° 0 mm 7 m/s 764 mmHg 70%
    12:00 +5°C° 0 mm 7 m/s 764 mmHg 64%
    13:00 +5°C° 0 mm 7 m/s 764 mmHg 65%
    14:00 +5°C° 0 mm 6 m/s 765 mmHg 66%
    15:00 +5°C° 0 mm 6 m/s 765 mmHg 67%
    16:00 +3°C° 0 mm 5 m/s 765 mmHg 72%
    17:00 +2°C° 0 mm 5 m/s 765 mmHg 77%
    18:00 +1°C° 0 mm 5 m/s 766 mmHg 82%
    19:00 0°C° 0 mm 5 m/s 766 mmHg 83%
    20:00 0°C° 0 mm 5 m/s 766 mmHg 84%
    21:00 0°C° 0 mm 4 m/s 767 mmHg 84%
    22:00 0°C° 0 mm 5 m/s 767 mmHg 84%
    23:00 0°C° 0 mm 5 m/s 767 mmHg 84%

    28 Octombrie, Luni

    Timp Temperatura Precipitaţii Vânt Presiune Umiditate
    00:00 0°C° 0 mm 5 m/s 767 mmHg 83%
    01:00 0°C° 0 mm 5 m/s 767 mmHg 84%
    02:00 0°C° 0 mm 5 m/s 767 mmHg 85%
    03:00 0°C° 0 mm 5 m/s 767 mmHg 86%
    04:00 -1°C° 0 mm 5 m/s 767 mmHg 86%
    05:00 -1°C° 0 mm 5 m/s 767 mmHg 87%
    06:00 -1°C° 0 mm 5 m/s 767 mmHg 87%
    07:00 0°C° 0 mm 5 m/s 768 mmHg 85%
    08:00 +1°C° 0 mm 5 m/s 768 mmHg 82%
    09:00 +2°C° 0 mm 5 m/s 768 mmHg 80%
    10:00 +2°C° 0 mm 5 m/s 768 mmHg 78%
    11:00 +3°C° 0 mm 5 m/s 768 mmHg 77%
    12:00 +5°C° 0 mm 5 m/s 769 mmHg 76%
    13:00 +5°C° 0 mm 5 m/s 768 mmHg 74%
    14:00 +5°C° 0 mm 5 m/s 768 mmHg 73%
    15:00 +5°C° 0 mm 5 m/s 768 mmHg 71%
    16:00 +4°C° 0 mm 4 m/s 768 mmHg 74%
    17:00 +3°C° 0 mm 4 m/s 769 mmHg 77%
    18:00 +1°C° 0 mm 4 m/s 769 mmHg 80%
    19:00 +1°C° 0 mm 4 m/s 769 mmHg 81%
    20:00 +1°C° 0 mm 4 m/s 769 mmHg 82%
    21:00 +1°C° 0 mm 3 m/s 770 mmHg 82%
    22:00 +1°C° 0 mm 3 m/s 770 mmHg 83%
    23:00 +1°C° 0 mm 3 m/s 769 mmHg 84%
    Arată mai mult